Flag for Germany Weather past 2 weeks in Merseburg, Saxony-Anhalt, Germany

Now
54 °F

Passing clouds.


Feels Like: 49 °F
Forecast: 49 / 70 °F
Wind: 15 mph from Southwest

Location: Leipzig-Schkeuditz

Current Time: Jul 30, 2015 at 7:05:14 AM

Latest Report: Jul 30, 2015 at 6:20 AM


Visibility: N/A

Pressure: 29.86 "Hg

Humidity: 72%

Dew point: 45 °F

Location of MerseburgLocation

Historic Weather in Merseburg — Graph

°F

Merseburg temperature yesterday

Maximum temperature yesterday: 70 °F (at 1:50 PM)
Minimum temperature yesterday: 55 °F (at 5:50 AM)
Average temperature yesterday: 62 °F

Past Weeks' High & Low Weather Summary

 TemperatureHumidityPressure
High93 °F (Jul 17, 5:20 PM)100% (Jul 23, 1:50 AM)30.12 "Hg (Jul 23, 1:50 AM)
Low52 °F (Jul 30, 3:20 AM)24% (Jul 17, 5:50 PM)29.59 "Hg (Jul 25, 3:50 AM)
Average69 °F66%29.88 "Hg
* Reported Jul 15 5:20 AM — Jul 30 5:50 AM, Merseburg, Weather by CustomWeather, © 2015

Note: Actual official high and low records may vary slightly from our data, if they occured in-between our weather recording intervals... More about our weather records

Advertising

Merseburg weather history for previous 24 hours

 ConditionsComfort  
Time TempWeatherWind HumidityBarometerVisibility
5:50 AM
Thu, Jul 30
54 °FClear.16 mph77%29.86 "Hg10 mi
5:20 AM54 °FClear.15 mph77%29.86 "Hg10 mi
4:50 AM54 °FClear.16 mph77%29.86 "Hg10 mi
4:20 AM54 °FClear.18 mph77%29.86 "Hg10 mi
3:50 AM54 °FPassing clouds.15 mph77%29.86 "HgN/A
3:20 AM52 °FClear.12 mph82%29.86 "Hg10 mi
2:50 AM54 °FClear.15 mph77%29.83 "Hg10 mi
2:20 AM54 °FClear.15 mph72%29.83 "Hg10 mi
1:50 AM54 °FClear.12 mph72%29.83 "Hg10 mi
1:20 AM55 °FClear.15 mph67%29.83 "Hg10 mi
12:50 AM55 °FClear.14 mph67%29.83 "Hg10 mi
12:20 AM55 °FClear.13 mph67%29.83 "Hg10 mi
11:50 PM
Wed, Jul 29
55 °FClear.12 mph67%29.83 "Hg10 mi
11:20 PM55 °FClear.17 mph67%29.80 "Hg10 mi
10:50 PM55 °FClear.13 mph67%29.80 "Hg10 mi
10:20 PM55 °FClear.8 mph72%29.80 "Hg10 mi
9:50 PM55 °FSunny.6 mph67%29.80 "Hg10 mi
9:20 PM55 °FSunny.7 mph67%29.80 "Hg10 mi
8:50 PM59 °FPassing clouds.8 mph59%29.77 "HgN/A
8:20 PM61 °FSunny.14 mph55%29.77 "Hg10 mi
7:50 PM63 °FPassing clouds.22 mph49%29.77 "HgN/A
7:20 PM64 °FPassing clouds.20 mph43%29.77 "HgN/A
6:50 PM63 °FSunny.18 mph49%29.77 "Hg10 mi
6:20 PM63 °FScattered showers. Broken clouds.15 mph56%29.77 "HgN/A
5:50 PM61 °FScattered showers. Broken clouds.21 mph55%29.74 "HgN/A
5:20 PM70 °FPartly sunny.16 mph38%29.71 "HgN/A
4:50 PM70 °FScattered showers. Partly sunny.21 mph38%29.71 "HgN/A
4:20 PM68 °FSunny.20 mph38%29.71 "Hg10 mi
3:50 PM70 °FSunny.22 mph33%29.71 "Hg10 mi
3:20 PM68 °FSunny.21 mph35%29.71 "Hg10 mi
2:50 PM70 °FSunny.21 mph35%29.71 "Hg10 mi
2:20 PM68 °FSunny.18 mph35%29.71 "Hg10 mi
1:50 PM70 °FSunny.21 mph40%29.71 "Hg10 mi
1:20 PM66 °FSunny.16 mph40%29.71 "Hg10 mi
12:50 PM68 °FSunny.16 mph46%29.74 "Hg10 mi
12:20 PM66 °FSunny.23 mph43%29.74 "Hg10 mi
11:50 AM68 °FPartly sunny.23 mph46%29.74 "HgN/A
11:20 AM64 °FBroken clouds.17 mph52%29.74 "HgN/A
10:50 AM64 °FBroken clouds.16 mph60%29.74 "HgN/A
10:20 AM61 °FBroken clouds.14 mph68%29.77 "HgN/A
9:20 AM61 °FPartly sunny.14 mph63%29.77 "HgN/A
8:50 AM59 °FPartly sunny.13 mph68%29.77 "HgN/A
8:20 AM59 °FPartly sunny.16 mph68%29.77 "HgN/A
7:50 AM59 °FPartly sunny.16 mph63%29.77 "HgN/A
7:20 AM59 °FPassing clouds.15 mph63%29.77 "HgN/A
Weather by CustomWeather, © 2015

See weather overviewHow to use our weather pages